Anniston, AL

2:54 PM CST on November 21, 2019 (GMT -0600)
Anniston Metro

Weather History for KANB - September, 2019

Change the Weather History Date:

Wednesday, September 4, 2019

  Actual Average Record
Temperature  
Mean Temperature 82 °F 77 °F  
Max Temperature 96 °F 87 °F 101 °F (1954)
Min Temperature 68 °F 67 °F 48 °F (1905)
Degree Days  
Heating Degree Days 0    
Month to date heating degree days 0  
Since 1 July heating degree days 0  
Cooling Degree Days 16    
Growing Degree Days 32 (Base 50)    
Moisture  
Dew Point 66 °F    
Average Humidity 63    
Maximum Humidity 90    
Minimum Humidity 36    
Precipitation  
Precipitation 0.00 in 0.10 in 2.42 in (1992)
Month to date precipitation T 0.40  
Year to date precipitation 39.17 35.32  
Sea Level Pressure  
Sea Level Pressure 29.97 in    
Wind  
Wind Speed 3 mph (North)    
Max Wind Speed 15 mph    
Max Gust Speed 19 mph    
Visibility 10 miles    
Events      
T = Trace of Precipitation, MM = Missing Value Source: NWS Daily Summary

Daily Weather History Graph

Daily Weather History Graph

Search for Another Location

Airport or City:

Astronomy

Sep. 04, 2019 Rise Set
Actual Time 6:19 AM CDT 7:05 PM CDT
Civil Twilight 5:54 AM CDT 7:30 PM CDT
Nautical Twilight 5:24 AM CDT 8:00 PM CDT
Astronomical Twilight 4:53 AM CDT 8:30 PM CDT
Moon 12:02 PM CDT (9/4) 10:57 PM CDT (9/4)
Length of Visible Light 13h 36m
Length of Day
12h 45m
Waxing Crescent, 35% of the Moon is Illuminated
Sep 4
Waxing Crescent
Sep 5
First Quarter
Sep 13
Full
Sep 21
Last Quarter
Sep 28
New

Hourly Weather History & Observations

Time (CDT) Temp. Heat Index Dew Point Humidity Pressure Visibility Wind Dir Wind Speed Gust Speed Precip Events Conditions
12:53 AM 72.0 °F - 68.0 °F 87% 29.96 in 10.0 mi Calm Calm - N/A   Clear
1:53 AM 69.1 °F - 66.9 °F 93% 29.96 in 10.0 mi Calm Calm - N/A   Clear
2:53 AM 68.0 °F - 64.9 °F 90% 29.96 in 10.0 mi Calm Calm - N/A   Clear
3:53 AM 69.1 °F - 66.0 °F 90% 29.95 in 10.0 mi Calm Calm - N/A   Clear
4:53 AM 69.1 °F - 66.0 °F 90% 29.97 in 10.0 mi ENE 3.5 mph - N/A   Clear
5:53 AM 68.0 °F - 64.9 °F 90% 29.98 in 10.0 mi East 3.5 mph - N/A   Clear
6:53 AM 69.1 °F - 64.9 °F 87% 30.02 in 10.0 mi ENE 4.6 mph - N/A   Clear
7:53 AM 72.0 °F - 66.0 °F 81% 30.04 in 10.0 mi Calm Calm - N/A   Clear
8:53 AM 79.0 °F - 68.0 °F 69% 30.03 in 10.0 mi Variable 3.5 mph - N/A   Clear
9:53 AM 84.0 °F 87.8 °F 69.1 °F 61% 30.02 in 10.0 mi Calm Calm - N/A   Clear
10:53 AM 89.1 °F 94.1 °F 70.0 °F 53% 30.01 in 10.0 mi SSE 4.6 mph - N/A   Clear
11:53 AM 90.0 °F 93.6 °F 68.0 °F 48% 30.00 in 10.0 mi Calm Calm - N/A   Partly Cloudy
12:53 PM 93.9 °F 95.6 °F 64.0 °F 37% 29.98 in 10.0 mi North 8.1 mph 19.6 mph N/A   Clear
1:53 PM 95.0 °F 97.0 °F 64.0 °F 36% 29.96 in 10.0 mi North 9.2 mph - N/A   Clear
2:53 PM 95.0 °F 97.4 °F 64.9 °F 37% 29.94 in 10.0 mi North 4.6 mph - N/A   Clear
3:53 PM 95.0 °F 97.9 °F 66.0 °F 38% 29.93 in 10.0 mi North 6.9 mph - N/A   Clear
4:53 PM 95.0 °F 97.0 °F 64.0 °F 36% 29.93 in 10.0 mi NW 8.1 mph - N/A   Clear
5:53 PM 93.9 °F 95.6 °F 64.0 °F 37% 29.93 in 10.0 mi NNW 5.8 mph - N/A   Clear
6:53 PM 90.0 °F 92.4 °F 66.0 °F 45% 29.93 in 10.0 mi WNW 4.6 mph - N/A   Clear
7:53 PM 84.9 °F 87.6 °F 66.9 °F 55% 29.93 in 10.0 mi West 4.6 mph - N/A   Clear
8:53 PM 80.1 °F 82.7 °F 68.0 °F 67% 29.93 in 10.0 mi Calm Calm - N/A   Clear
9:53 PM 77.0 °F - 68.0 °F 74% 29.94 in 10.0 mi Calm Calm - N/A   Clear
10:53 PM 75.0 °F - 68.0 °F 79% 29.94 in 10.0 mi Calm Calm - N/A   Clear
11:53 PM 72.0 °F - 68.0 °F 87% 29.94 in 10.0 mi Calm Calm - N/A   Clear